Home > Weather > Lindlar > Past weeks

Flag for Germany Past Weather in Lindlar, North Rhine-Westphalia, Germany — Yesterday and Last 2 Weeks

Now
70 °F

Broken clouds.


Feels Like: 70 °F
Forecast: 56 / 68 °F
Wind: 2 mph from North

Location: Koeln / Bonn

Current Time: Jul 28, 2016 at 8:31:16 PM

Latest Report: Jul 28, 2016 at 7:50 PM


Visibility: N/A

Pressure: 29.92 "Hg

Humidity: 83%

Dew Point: 64 °F

Location of LindlarLocation

Past Weather in Lindlar — Graph

°F

Lindlar Temperature Yesterday

Maximum temperature yesterday: 75 °F (at 2:20 PM)
Minimum temperature yesterday: 55 °F (at 1:20 AM)
Average temperature yesterday: 66 °F

High & Low Weather Summary for the Past Weeks

 TemperatureHumidityPressure
High93 °F (Jul 20, 3:20 PM)100% (Jul 14, 5:20 AM)30.30 "Hg (Jul 14, 5:20 AM)
Low48 °F (Jul 14, 4:20 AM)32% (Jul 20, 3:20 PM)29.86 "Hg (Jul 20, 5:20 PM)
Average69 °F74%30.10 "Hg
* Reported Jul 13 7:50 PM — Jul 28 7:20 PM, Lindlar, Weather by CustomWeather, © 2016

Note: Actual official high and low records may vary slightly from our data, if they occured in-between our weather recording intervals... More about our weather records

Advertising

Lindlar Weather History for the Previous 24 Hours

Scroll right to see more
 ConditionsComfort  
Time TempWeatherWind HumidityBarometerVisibility
7:20 PM
Thu, Jul 28
68 °FBroken clouds.8 mph88%29.95 "HgN/A
6:50 PM70 °FPartly sunny.6 mph83%29.95 "HgN/A
6:20 PM70 °FPartly sunny.7 mph83%29.95 "HgN/A
5:50 PM70 °FBroken clouds.7 mph83%29.95 "HgN/A
5:20 PM70 °FBroken clouds.7 mph83%29.95 "HgN/A
4:50 PM68 °FScattered showers. Partly sunny.6 mph88%29.95 "HgN/A
4:20 PM66 °FScattered showers. Partly sunny.3 mph94%29.98 "HgN/A
3:50 PM64 °FRain showers. Broken clouds.6 mph94%29.98 "Hg5 mi
3:20 PM64 °FLots of rain. Broken clouds.9 mph94%29.98 "Hg2 mi
2:50 PM64 °FRain showers. Broken clouds.5 mph100%29.98 "Hg3 mi
2:20 PM66 °FRain showers. Broken clouds.3 mph88%29.98 "Hg2 mi
1:50 PM68 °FLight rain. Broken clouds.3 mph88%29.98 "HgN/A
1:20 PM68 °FLight rain. Broken clouds.5 mph83%30.01 "HgN/A
12:50 PM66 °FLight rain. Broken clouds.6 mph94%30.01 "HgN/A
12:20 PM66 °FLight rain. Broken clouds.5 mph88%30.01 "HgN/A
11:50 AM66 °FLight rain. Broken clouds.6 mph88%30.01 "HgN/A
11:20 AM66 °FLight rain. Partly sunny.5 mph88%30.01 "HgN/A
10:50 AM64 °FLight rain. Mostly cloudy.5 mph88%30.01 "HgN/A
10:20 AM64 °FLight rain. Partly sunny.3 mph88%30.01 "HgN/A
9:50 AM64 °FLight rain. Mostly cloudy.3 mph88%30.01 "HgN/A
9:20 AM64 °FLight rain. Broken clouds.5 mph88%30.01 "HgN/A
8:50 AM64 °FLight rain. More clouds than sun.6 mph88%30.01 "HgN/A
8:20 AM64 °FLight rain. Mostly cloudy.8 mph83%30.01 "HgN/A
7:50 AM64 °FLight rain. Partly sunny.6 mph83%30.01 "HgN/A
7:20 AM64 °FPartly sunny.6 mph83%30.01 "HgN/A
6:50 AM64 °FPassing clouds.5 mph83%30.01 "HgN/A
6:20 AM64 °FPassing clouds.5 mph83%30.01 "HgN/A
5:50 AM63 °FPartly cloudy.7 mph88%30.01 "HgN/A
5:20 AM63 °FPartly cloudy.5 mph88%30.01 "HgN/A
4:50 AM64 °FPartly cloudy.5 mph83%30.01 "HgN/A
4:20 AM64 °FPassing clouds.5 mph83%30.01 "HgN/A
3:50 AM64 °FPassing clouds.3 mph83%30.01 "HgN/A
3:20 AM64 °FLight rain. Passing clouds.3 mph83%30.04 "HgN/A
2:50 AM66 °FLight rain. Passing clouds.2 mph78%30.04 "HgN/A
2:20 AM66 °FLight rain. Passing clouds.3 mph73%30.04 "HgN/A
1:50 AM66 °FMostly cloudy.5 mph73%30.04 "HgN/A
1:20 AM66 °FOvercast.5 mph73%30.04 "HgN/A
12:50 AM68 °FOvercast.5 mph69%30.04 "HgN/A
12:20 AM68 °FPassing clouds.8 mph64%30.04 "HgN/A
11:50 PM
Wed, Jul 27
68 °FOvercast.7 mph69%30.04 "HgN/A
11:20 PM70 °FPassing clouds.9 mph60%30.04 "HgN/A
10:50 PM70 °FClear.6 mph60%30.04 "Hg10 mi
10:20 PM70 °FPassing clouds.8 mph60%30.04 "HgN/A
9:50 PM70 °FPartly sunny.12 mph60%30.04 "HgN/A
9:20 PM70 °FBroken clouds.10 mph60%30.04 "HgN/A
8:50 PM70 °FScattered clouds.14 mph60%30.01 "HgN/A
8:20 PM72 °FBroken clouds.12 mph57%30.01 "HgN/A
Weather by CustomWeather, © 2016

See weather overviewHow to use our weather pages